Hilo, HI

2:54 AM HST on April 22, 2018 (GMT -1000)
Hilo International

Weather History for PHTO - March, 2013

Change the Weather History Date:

Sunday, March 3, 2013

  Actual Average Record
Temperature  
Mean Temperature 72 °F 72 °F  
Max Temperature 79 °F 79 °F 87 °F (1989)
Min Temperature 64 °F 64 °F 54 °F (1983)
Degree Days  
Heating Degree Days 0 0  
Month to date heating degree days 0 0  
Since 1 July heating degree days 0 0  
Cooling Degree Days 7 6  
Month to date cooling degree days 25 18  
Year to date cooling degree days 397 388  
Growing Degree Days 22 (Base 50)    
Moisture  
Dew Point 59 °F    
Average Humidity 66    
Maximum Humidity 87    
Minimum Humidity 45    
Precipitation  
Precipitation 0.05 in 0.41 in 7.10 in (1969)
Month to date precipitation 0.10 1.20  
Year to date precipitation 31.60 20.02  
Snow  
Snow 0.00 in - - ()
Month to date snowfall 0.0  
Since 1 July snowfall 0.0  
Snow Depth 0.00 in    
Sea Level Pressure  
Sea Level Pressure 30.16 in    
Wind  
Wind Speed 8 mph (NNE)    
Max Wind Speed 20 mph    
Max Gust Speed 24 mph    
Visibility 10 miles    
Events Rain    
T = Trace of Precipitation, MM = Missing Value Source: NWS Daily Summary

Daily Weather History Graph

Daily Weather History Graph

Search for Another Location

Airport or City:

Astronomy

Mar. 03, 2013 Rise Set
Actual Time 6:37 AM HST 6:26 PM HST
Civil Twilight 6:15 AM HST 6:48 PM HST
Nautical Twilight 5:50 AM HST 7:13 PM HST
Astronomical Twilight 5:24 AM HST 7:39 PM HST
Moon No Moon Rise 10:55 AM HST (3/3)
Length of Visible Light 12h 32m
Length of Day
11h 48m
Waning Gibbous, 61% of the Moon is Illuminated
Mar 3
Waning Gibbous
Mar 4
Last Quarter
Mar 11
New
Mar 19
First Quarter
Mar 26
Full

Hourly Weather History & Observations

Time (HST) Temp. Dew Point Humidity Pressure Visibility Wind Dir Wind Speed Gust Speed Precip Events Conditions
12:53 AM 66.9 °F 62.1 °F 84% 30.20 in 5.0 mi North 10.4 mph - 0.00 in Rain Light Rain
1:33 AM 66.0 °F 60.1 °F 81% 30.20 in 10.0 mi WNW 6.9 mph - 0.00 in   Overcast
1:53 AM 66.0 °F 60.1 °F 81% 30.18 in 10.0 mi West 5.8 mph - 0.00 in   Overcast
2:53 AM 66.0 °F 61.0 °F 84% 30.17 in 10.0 mi West 6.9 mph - 0.05 in Rain Light Rain
3:53 AM 64.9 °F 61.0 °F 87% 30.16 in 10.0 mi WSW 4.6 mph - 0.00 in   Overcast
4:53 AM 64.9 °F 61.0 °F 87% 30.15 in 10.0 mi SW 4.6 mph - N/A   Overcast
5:39 AM 66.0 °F 61.0 °F 84% 30.16 in 10.0 mi Variable 4.6 mph - 0.00 in Rain Light Rain
5:48 AM 66.2 °F 60.8 °F 83% 30.16 in 10.0 mi Variable 4.6 mph - 0.00 in   Overcast
5:53 AM 66.9 °F 61.0 °F 81% 30.16 in 10.0 mi Calm Calm - 0.00 in   Overcast
6:53 AM 68.0 °F 62.1 °F 81% 30.17 in 10.0 mi NE 8.1 mph - N/A   Overcast
7:53 AM 72.0 °F 62.1 °F 71% 30.18 in 10.0 mi NE 6.9 mph - N/A   Overcast
8:53 AM 72.0 °F 61.0 °F 68% 30.18 in 10.0 mi NNW 5.8 mph - N/A   Mostly Cloudy
9:53 AM 73.9 °F 60.1 °F 62% 30.18 in 10.0 mi North 6.9 mph - N/A   Scattered Clouds
10:53 AM 78.1 °F 57.9 °F 50% 30.17 in 10.0 mi ENE 10.4 mph - N/A   Scattered Clouds
11:53 AM 78.1 °F 57.9 °F 50% 30.15 in 10.0 mi ENE 10.4 mph - N/A   Partly Cloudy
12:53 PM 78.1 °F 57.0 °F 48% 30.13 in 10.0 mi NE 10.4 mph - N/A   Partly Cloudy
1:53 PM 79.0 °F 55.0 °F 44% 30.12 in 10.0 mi NE 9.2 mph - N/A   Partly Cloudy
2:53 PM 75.9 °F 55.0 °F 48% 30.12 in 10.0 mi NE 11.5 mph - N/A   Partly Cloudy
3:53 PM 73.9 °F 57.0 °F 55% 30.11 in 10.0 mi ENE 11.5 mph - N/A   Scattered Clouds
4:53 PM 73.9 °F 57.0 °F 55% 30.12 in 10.0 mi NE 10.4 mph - N/A   Overcast
5:53 PM 73.0 °F 55.9 °F 55% 30.12 in 10.0 mi ENE 6.9 mph - N/A   Overcast
6:53 PM 72.0 °F 55.9 °F 57% 30.14 in 10.0 mi ENE 9.2 mph - N/A   Overcast
7:53 PM 72.0 °F 57.9 °F 61% 30.16 in 10.0 mi NE 6.9 mph - N/A   Overcast
8:53 PM 71.1 °F 61.0 °F 70% 30.17 in 9.0 mi North 5.8 mph - 0.00 in Rain Light Rain
9:53 PM 71.1 °F 60.1 °F 68% 30.18 in 10.0 mi NE 11.5 mph - 0.00 in   Overcast
10:53 PM 71.1 °F 57.9 °F 63% 30.18 in 10.0 mi NE 9.2 mph - N/A   Overcast
11:53 PM 71.1 °F 55.9 °F 59% 30.18 in 10.0 mi NE 6.9 mph - N/A   Overcast